Home > Weather > Tulkarm > Past weeks

Flag for Palestinian Territories Weather for the Past 2 Weeks in Tulkarm, West Bank, Palestinian Territories

Now
55 °F

Sunny.


Feels Like: 55 °F
Forecast: 50 / 63 °F
Wind: 5 mph from East

Location: Dov Airport

Current Time: Feb 9, 2016 at 10:07:40 AM

Latest Report: Feb 9, 2016 at 8:50 AM


Visibility: 10 mi

Pressure: 30.21 "Hg

Humidity: 63%

Dew point: 43 °F

Location of TulkarmLocation

Historic Weather in Tulkarm — Graph

°F

Tulkarm Temperature Yesterday

Maximum temperature yesterday: 57 °F (at 12:50 PM)
Minimum temperature yesterday: 52 °F (at 5:00 AM)
Average temperature yesterday: 55 °F

High & Low Weather Summary for the Past Weeks

 TemperatureHumidityPressure
High75 °F (Feb 4, 12:50 PM)94% (Feb 8, 6:50 AM)30.42 "Hg (Feb 8, 6:50 AM)
Low39 °F (Jan 28, 5:50 AM)22% (Feb 4, 12:50 PM)29.89 "Hg (Feb 7, 5:50 AM)
Average55 °F67%30.18 "Hg
* Reported Jan 25 8:50 AM — Feb 9 8:50 AM, Tulkarm, Weather by CustomWeather, © 2016

Note: Actual official high and low records may vary slightly from our data, if they occured in-between our weather recording intervals... More about our weather records

Advertising

Tulkarm Weather History for the Previous 24 Hours

 ConditionsComfort  
Time TempWeatherWind HumidityBarometerVisibility
8:50 AM
Tue, Feb 9
55 °FSunny.5 mph63%30.21 "Hg10 mi
7:50 AM52 °FSunny.6 mph77%30.21 "Hg10 mi
6:50 AM50 °FSunny.6 mph82%30.21 "Hg10 mi
5:50 AM50 °FPassing clouds.6 mph76%30.21 "HgN/A
10:50 PM
Mon, Feb 8
54 °FPassing clouds.5 mph88%30.24 "HgN/A
9:50 PM55 °FPassing clouds.5 mph82%30.24 "HgN/A
8:50 PM55 °FPassing clouds.5 mph77%30.21 "HgN/A
7:50 PM55 °FPassing clouds.3 mph82%30.21 "HgN/A
6:50 PM55 °FPassing clouds.6 mph77%30.21 "HgN/A
5:50 PM55 °FLight rain. Partly cloudy.5 mph77%30.21 "HgN/A
4:50 PM57 °FBroken clouds.3 mph77%30.18 "HgN/A
3:50 PM57 °FScattered clouds.2 mph77%30.18 "HgN/A
2:50 PM57 °FPartly sunny.9 mph77%30.18 "HgN/A
1:50 PM57 °FPartly sunny.9 mph77%30.18 "HgN/A
12:50 PM57 °FScattered clouds.6 mph77%30.18 "HgN/A
11:50 AM55 °FPartly sunny.9 mph82%30.21 "HgN/A
10:50 AM55 °FPartly sunny.9 mph88%30.21 "HgN/A
Weather by CustomWeather, © 2016

See weather overviewHow to use our weather pages